Wind_Speed
30 31 33 32 33 33 33 32 31 30 30 30 30 31 32 31 32 34 35 36 40 42 45 47 48 48 49 49 50 52 54 54 56 61 63 63 60 57 55 57 56 52 50
36 35 37 37 35 34 32 32 31 30 30 30 31 30 31 32 33 33 34 37 41 43 46 48 47 48 49 48 50 52 56 57 58 62 66 72 73 65 57 53 53 52 52
38 39 39 38 37 36 34 32 31 30 30 31 29 30 31 31 32 32 35 39 41 44 47 47 47 48 48 50 52 54 57 60 60 59 60 65 68 68 57 54 56 49 46
40 41 40 38 38 37 35 33 32 31 31 30 29 30 29 31 31 32 36 39 42 45 46 46 46 46 47 49 52 54 56 58 60 59 55 54 55 57 62 47 52 44 46
31 37 36 35 34 34 35 33 32 31 30 29 29 28 29 30 30 34 37 39 42 44 44 45 44 45 47 50 53 55 56 55 58 56 54 52 51 50 50 55 48 42 42
23 33 35 35 33 31 33 33 33 31 28 28 27 27 28 29 31 36 38 40 43 43 43 43 44 46 49 52 55 55 53 54 52 52 51 50 49 48 46 48 46 46 40
21 29 30 29 26 28 29 31 31 28 26 25 26 27 28 30 34 36 37 41 42 41 42 42 43 46 49 52 53 51 51 48 50 51 50 48 46 43 42 43 44 44 39
18 21 22 24 24 24 24 26 27 25 23 24 26 27 28 32 35 35 38 40 40 41 41 41 44 47 50 51 49 48 46 46 48 49 48 46 42 38 37 38 40 42 39
26 24 23 22 21 21 21 24 24 23 23 24 25 27 31 33 33 35 37 38 39 39 39 42 45 47 49 48 46 45 44 45 46 47 46 43 39 35 33 33 32 35 42
21 20 21 20 21 19 19 22 23 22 21 23 26 29 32 32 32 35 36 36 37 37 39 41 44 47 47 45 43 42 42 44 44 44 45 41 37 33 30 29 29 29 34
17 17 19 20 20 19 20 20 22 20 21 25 28 31 31 30 32 34 34 35 35 36 38 41 44 46 45 41 41 40 42 42 43 41 42 39 35 31 28 26 26 27 27
15 20 21 22 23 21 20 21 23 21 24 27 28 30 28 30 32 32 33 33 33 35 38 41 43 45 42 38 40 39 41 40 41 40 40 38 34 29 26 25 24 25 23
17 16 19 23 23 23 24 24 23 22 25 27 28 27 27 30 31 31 32 32 33 35 37 40 43 43 39 36 38 39 39 39 39 39 38 37 33 28 25 23 23 22 20
20 19 21 21 24 26 28 28 22 24 26 26 26 26 27 30 30 30 30 30 32 34 37 40 41 40 37 35 36 37 38 37 37 36 36 34 33 29 25 23 21 20 18
22 22 22 21 24 28 30 29 23 25 26 26 25 26 28 29 29 29 29 29 31 34 36 39 40 38 35 34 35 36 37 37 36 34 33 32 31 29 25 24 20 18 17
20 23 25 23 24 29 33 29 27 26 27 26 25 27 29 28 28 28 28 29 31 33 36 38 38 36 34 34 35 35 36 35 35 33 30 29 28 27 23 20 18 17 16
20 23 23 24 24 30 33 32 29 28 28 27 26 28 28 27 27 27 27 29 30 32 35 36 36 34 34 35 34 33 34 33 32 31 29 27 26 25 23 18 15 15 15
28 29 29 28 28 31 31 33 32 30 29 27 28 28 26 26 26 26 27 28 30 32 34 34 35 33 33 34 33 33 32 31 29 29 27 26 24 23 22 17 14 14 15
26 28 30 27 27 30 28 32 33 31 29 28 29 25 25 25 25 26 27 28 29 31 32 34 33 32 32 33 32 32 33 30 29 28 27 26 24 21 22 20 15 14 15
35 31 28 26 26 30 30 31 32 30 29 29 26 22 24 24 24 25 26 27 29 31 31 31 32 32 31 31 30 31 33 32 30 28 26 24 24 23 20 20 17 14 15
28 26 24 24 25 29 29 31 31 30 29 28 21 22 23 23 23 24 26 27 28 30 31 31 31 30 30 29 30 30 31 33 32 31 29 27 23 22 21 20 17 15 15
19 23 22 23 25 25 28 29 29 29 28 22 19 22 22 22 22 24 25 27 28 29 30 30 28 27 27 28 29 29 29 30 33 31 31 30 27 23 22 21 18 16 16
17 18 20 21 22 23 25 27 30 28 24 17 19 21 20 20 21 23 24 25 27 28 29 30 28 25 26 27 27 28 30 30 31 31 31 30 28 26 22 21 19 17 16
16 18 19 19 19 18 25 30 28 24 17 15 19 19 19 19 21 23 24 25 26 26 28 29 29 28 27 28 28 29 31 31 32 31 30 29 28 26 24 20 19 16 15
15 19 21 21 25 24 26 27 23 18 13 16 17 16 17 17 19 22 22 24 26 27 28 30 31 33 31 30 31 32 34 35 34 34 32 30 26 22 23 20 19 17 16
22 25 24 24 25 27 26 22 17 12 13 15 14 14 14 15 16 18 23 24 24 25 26 28 31 31 31 31 31 32 33 33 33 34 35 30 23 18 19 19 20 18 16
Wind_Direction
259 257 255 255 255 257 259 261 264 267 268 268 271 275 279 284 291 296 300 303 310 314 315 317 318 319 320 321 321 320 320 320 318 315 312 308 303 300 297 294 292 290 287
259 256 256 256 257 258 260 260 262 267 269 269 273 277 279 284 290 296 300 306 310 313 315 317 318 320 321 321 321 321 321 320 318 315 311 310 308 305 303 298 294 287 288
257 258 257 259 258 257 259 261 263 266 268 269 275 277 280 284 290 296 300 306 310 312 315 317 319 321 322 323 323 322 321 319 317 316 314 312 309 306 304 298 294 295 285
254 258 259 258 259 256 255 255 258 263 267 269 271 276 280 286 292 295 301 305 308 312 315 317 320 321 322 322 322 321 320 318 318 318 317 313 310 308 307 301 296 299 288
254 258 262 262 261 258 254 252 254 258 264 266 274 279 278 285 292 295 302 304 309 313 315 317 320 321 322 322 322 322 322 323 322 321 319 314 311 308 306 306 303 300 298
255 252 256 260 261 257 251 246 250 256 261 266 275 278 282 287 290 297 301 305 309 313 316 319 321 323 323 324 324 324 325 325 325 324 320 317 314 310 305 303 304 303 304
241 241 251 257 257 255 252 244 250 256 261 267 274 279 282 286 293 297 301 306 310 314 317 320 322 323 324 325 324 325 328 328 328 327 323 319 316 310 305 304 304 305 308
244 254 262 256 256 253 250 244 249 253 260 267 273 277 281 287 292 296 302 307 312 316 319 320 322 325 325 324 325 328 328 327 326 329 325 320 316 311 306 305 305 306 306
252 265 260 256 246 247 245 242 247 252 259 268 274 276 282 288 292 298 304 309 314 317 319 321 324 325 325 325 326 328 328 328 327 329 327 322 317 312 308 306 303 304 306
248 252 255 244 242 245 243 245 248 253 262 273 274 279 283 287 293 301 306 311 314 316 319 322 324 325 325 325 325 328 328 328 330 328 330 324 319 314 310 305 303 302 302
243 257 256 248 250 250 248 249 253 251 269 274 276 279 283 287 297 303 307 312 315 316 320 322 324 324 324 325 325 327 327 329 330 328 330 328 320 316 313 307 307 305 305
256 264 260 255 257 252 245 248 247 258 275 274 274 279 282 292 299 304 309 312 314 317 320 322 324 324 324 324 323 326 326 330 330 328 330 333 325 319 314 311 309 307 307
251 245 265 269 259 248 242 243 245 272 274 271 275 276 284 295 301 306 309 312 314 317 320 322 324 323 322 323 322 324 326 330 329 329 331 335 330 324 317 313 310 309 303
265 254 260 265 252 245 242 238 253 276 272 272 274 277 289 298 301 305 308 310 315 317 320 323 323 322 321 322 323 322 326 328 328 329 331 334 335 330 324 316 312 306 303
266 263 260 260 257 248 244 239 261 275 272 273 273 281 293 298 301 305 308 312 314 317 321 323 323 321 321 322 321 322 325 327 328 330 332 334 335 335 328 322 321 309 303
263 256 256 253 254 248 246 243 261 272 271 274 275 285 294 297 302 305 308 312 314 318 322 322 323 321 321 322 319 322 323 325 327 329 331 332 331 335 333 328 321 312 310
262 259 259 256 255 253 243 245 257 270 270 274 276 286 292 297 302 305 308 311 315 319 322 323 323 323 321 320 318 321 321 324 326 327 327 328 327 328 333 334 324 313 308
261 265 264 260 251 246 240 248 254 268 270 271 277 286 291 297 301 305 308 312 316 320 322 324 324 324 320 317 319 320 321 322 323 323 324 322 324 321 324 331 322 312 306
264 265 262 251 244 243 244 250 253 264 267 269 279 285 291 296 301 305 309 313 317 321 325 326 326 324 320 318 320 320 320 322 322 321 321 317 316 317 315 320 319 310 303
264 263 255 244 239 236 246 248 255 262 264 270 279 286 292 296 300 305 310 314 319 324 325 327 328 325 320 321 320 319 320 321 322 321 318 312 308 309 308 308 311 307 296
260 250 244 235 235 237 245 248 255 259 262 272 279 286 291 295 302 307 312 316 322 324 327 331 330 324 321 322 321 321 320 320 320 321 319 312 305 297 296 296 301 300 292
250 238 229 228 230 236 243 249 254 257 263 270 281 285 290 296 303 309 314 320 325 326 328 332 331 324 323 322 322 321 320 320 317 318 315 310 304 294 285 284 284 288 287
237 225 221 219 227 239 248 252 254 260 265 273 279 284 291 299 305 312 319 323 325 326 329 331 329 330 328 325 323 322 322 320 317 317 313 306 300 291 280 274 273 274 277
221 215 215 230 234 255 259 258 258 262 265 272 277 285 294 303 311 317 321 322 325 327 329 329 333 336 334 330 326 326 327 327 322 318 313 306 296 286 276 262 262 263 263
222 228 225 238 241 247 255 257 257 257 262 272 279 289 298 309 315 318 320 323 325 330 332 334 337 337 336 334 334 333 330 328 325 322 319 313 301 282 266 254 250 250 250
232 221 227 239 241 248 252 250 248 250 262 272 282 292 302 311 315 319 321 324 328 332 335 336 336 336 334 333 334 332 330 328 327 326 323 321 309 287 260 247 236 237 239
Height
3069 3069 3070 3072 3073 3074 3076 3078 3080 3081 3082 3083 3084 3085 3085 3085 3083 3082 3079 3077 3074 3070 3066 3061 3057 3051 3046 3040 3033 3027 3021 3015 3007 2996 2989 2985 2982 2979 2974 2968 2961 2957 2953
3059 3061 3061 3063 3065 3067 3069 3071 3073 3075 3076 3077 3078 3079 3079 3078 3076 3075 3073 3070 3066 3062 3058 3054 3049 3043 3037 3032 3025 3017 3009 3003 2995 2984 2974 2962 2959 2958 2959 2952 2946 2940 2938
3050 3051 3053 3054 3057 3059 3062 3065 3067 3069 3070 3071 3073 3072 3072 3071 3070 3069 3067 3063 3060 3056 3051 3046 3041 3035 3028 3021 3014 3007 3000 2990 2984 2977 2967 2952 2943 2935 2946 2938 2928 2926 2923
3042 3042 3043 3046 3048 3051 3054 3057 3060 3062 3064 3065 3066 3065 3066 3065 3064 3063 3060 3057 3053 3049 3044 3039 3033 3027 3020 3014 3007 3000 2992 2983 2973 2965 2958 2948 2937 2925 2913 2927 2913 2913 2907
3034 3033 3035 3038 3041 3044 3047 3051 3053 3055 3057 3059 3060 3060 3059 3059 3058 3056 3054 3050 3047 3043 3038 3032 3025 3019 3012 3006 2998 2990 2981 2972 2962 2954 2946 2939 2930 2920 2911 2898 2901 2901 2896
3028 3027 3029 3030 3034 3037 3039 3043 3045 3048 3051 3053 3054 3054 3054 3053 3051 3049 3047 3043 3040 3036 3030 3023 3017 3010 3004 2996 2987 2979 2971 2962 2953 2945 2937 2928 2920 2911 2904 2895 2890 2884 2885
3021 3020 3022 3024 3028 3030 3033 3036 3039 3042 3046 3047 3047 3048 3047 3046 3045 3042 3040 3037 3033 3028 3022 3015 3009 3003 2995 2986 2978 2970 2961 2953 2945 2937 2927 2919 2912 2904 2896 2889 2882 2876 2875
3016 3015 3017 3020 3023 3025 3028 3031 3034 3037 3040 3041 3042 3042 3041 3040 3038 3035 3033 3029 3025 3019 3013 3007 3001 2994 2986 2978 2969 2961 2954 2947 2939 2929 2920 2911 2904 2896 2890 2884 2877 2868 2865
3011 3010 3013 3015 3018 3020 3023 3025 3028 3032 3034 3035 3036 3036 3035 3033 3031 3029 3025 3021 3016 3010 3005 2999 2992 2985 2977 2969 2961 2954 2947 2939 2931 2921 2913 2904 2896 2890 2885 2880 2875 2867 2857
3005 3006 3007 3010 3013 3015 3018 3019 3023 3026 3028 3030 3029 3029 3028 3026 3025 3022 3017 3013 3008 3003 2998 2991 2985 2977 2970 2962 2954 2947 2940 2932 2923 2914 2906 2898 2890 2884 2879 2874 2870 2866 2859
3000 3002 3003 3005 3008 3010 3012 3014 3018 3021 3022 3023 3023 3022 3021 3020 3018 3014 3010 3005 3000 2995 2990 2983 2977 2970 2963 2956 2948 2941 2934 2925 2916 2909 2901 2892 2884 2878 2873 2869 2865 2861 2857
2996 2998 2999 3000 3002 3004 3007 3009 3012 3015 3016 3016 3015 3014 3014 3013 3010 3006 3002 2997 2992 2987 2981 2976 2969 2961 2955 2949 2941 2935 2928 2919 2911 2904 2896 2887 2880 2874 2869 2864 2861 2857 2854
2990 2992 2994 2995 2997 2999 3002 3004 3006 3008 3009 3008 3008 3007 3007 3006 3003 2999 2994 2990 2985 2980 2975 2968 2961 2954 2948 2942 2936 2929 2922 2914 2906 2899 2891 2883 2876 2870 2865 2861 2857 2854 2851
2985 2986 2987 2990 2991 2993 2995 2997 3000 3001 3001 3001 3001 3001 3000 2999 2995 2992 2987 2983 2978 2974 2968 2961 2954 2947 2941 2935 2929 2924 2916 2909 2902 2895 2887 2879 2873 2866 2861 2857 2854 2851 2848
2978 2979 2980 2981 2984 2987 2989 2991 2993 2994 2994 2994 2994 2994 2993 2991 2988 2984 2980 2976 2972 2967 2961 2954 2948 2941 2934 2928 2923 2917 2910 2904 2897 2890 2883 2876 2870 2863 2858 2854 2852 2848 2846
2969 2971 2972 2972 2975 2979 2982 2985 2987 2987 2987 2988 2987 2987 2985 2983 2980 2977 2973 2970 2965 2960 2954 2948 2941 2935 2928 2922 2917 2910 2904 2899 2892 2886 2880 2874 2868 2863 2858 2854 2850 2847 2844
2960 2962 2962 2964 2966 2971 2976 2979 2980 2980 2981 2981 2981 2980 2978 2975 2972 2969 2966 2963 2959 2953 2948 2941 2934 2928 2921 2916 2911 2905 2899 2894 2888 2882 2876 2872 2866 2860 2857 2854 2850 2847 2844
2951 2953 2953 2954 2958 2963 2968 2971 2973 2973 2974 2973 2973 2973 2971 2968 2965 2962 2959 2956 2951 2947 2942 2935 2927 2921 2915 2910 2904 2899 2894 2889 2884 2878 2872 2868 2864 2859 2855 2853 2849 2846 2843
2942 2943 2944 2946 2951 2956 2961 2964 2966 2966 2966 2967 2966 2965 2963 2961 2958 2955 2952 2948 2945 2940 2935 2927 2921 2914 2910 2904 2898 2892 2888 2883 2878 2873 2868 2864 2860 2857 2853 2850 2848 2844 2842
2933 2935 2937 2940 2945 2950 2953 2956 2958 2959 2959 2959 2959 2958 2957 2954 2952 2949 2945 2942 2938 2933 2928 2922 2914 2909 2904 2898 2893 2887 2881 2875 2871 2868 2864 2861 2856 2853 2850 2847 2845 2843 2840
2924 2927 2931 2935 2939 2943 2947 2949 2951 2951 2952 2951 2951 2951 2950 2948 2945 2942 2939 2935 2932 2927 2921 2915 2909 2904 2898 2893 2887 2882 2876 2870 2865 2861 2857 2855 2852 2849 2846 2844 2842 2840 2837
2918 2921 2925 2929 2933 2937 2940 2943 2943 2944 2944 2944 2944 2944 2943 2942 2939 2936 2932 2928 2925 2920 2915 2910 2905 2899 2893 2887 2883 2877 2872 2866 2859 2855 2851 2848 2845 2843 2841 2839 2838 2837 2835
2914 2917 2921 2925 2929 2931 2935 2936 2936 2937 2938 2938 2939 2938 2937 2935 2932 2929 2926 2922 2919 2915 2909 2903 2899 2894 2888 2883 2878 2872 2866 2861 2855 2849 2845 2841 2838 2835 2834 2833 2833 2833 2832
2911 2914 2918 2921 2924 2927 2929 2929 2930 2931 2932 2933 2933 2932 2931 2928 2925 2922 2920 2916 2914 2910 2904 2899 2893 2888 2882 2877 2871 2865 2859 2854 2849 2843 2839 2833 2829 2827 2826 2827 2827 2828 2829
2908 2911 2913 2916 2918 2920 2921 2923 2924 2925 2927 2928 2928 2927 2924 2922 2920 2917 2914 2911 2907 2902 2898 2893 2887 2880 2876 2871 2864 2858 2852 2847 2841 2835 2831 2825 2820 2818 2818 2820 2821 2823 2825
2901 2903 2906 2908 2911 2913 2915 2917 2918 2920 2922 2923 2922 2921 2920 2918 2916 2913 2908 2905 2902 2898 2894 2888 2882 2877 2871 2866 2860 2854 2849 2842 2835 2829 2822 2817 2812 2810 2810 2813 2815 2818 2821